QPF
0.14 0.17 0.24 0.23 0.18 0.24 0.31 0.24 0.26 0.39 0.43 0.37 0.33 0.32 0.31 0.26 0.22 0.20 0.17 0.12 0.09 0.10 0.09 0.07 0.05 0.04 0.04 0.03 0.03 0.03 0.02 0.02 0.02 0.02 0.01 0.01 0.01 0.01 0.00 0.00 0.01 0.01 0.00
0.13 0.15 0.21 0.23 0.20 0.27 0.30 0.25 0.24 0.34 0.44 0.38 0.36 0.36 0.33 0.27 0.22 0.22 0.20 0.17 0.11 0.10 0.09 0.07 0.05 0.04 0.04 0.04 0.04 0.04 0.04 0.03 0.04 0.04 0.03 0.02 0.01 0.01 0.01 0.01 0.01 0.01 0.01
0.14 0.15 0.18 0.21 0.19 0.30 0.33 0.29 0.27 0.32 0.42 0.39 0.40 0.43 0.43 0.38 0.28 0.24 0.22 0.18 0.14 0.11 0.09 0.08 0.06 0.04 0.03 0.03 0.03 0.03 0.04 0.04 0.03 0.04 0.05 0.05 0.03 0.02 0.02 0.01 0.01 0.01 0.01
0.15 0.16 0.16 0.20 0.19 0.28 0.33 0.32 0.32 0.34 0.37 0.36 0.38 0.45 0.45 0.41 0.34 0.24 0.21 0.17 0.15 0.13 0.12 0.09 0.08 0.04 0.03 0.03 0.03 0.03 0.03 0.04 0.04 0.04 0.05 0.05 0.04 0.04 0.03 0.02 0.01 0.01 0.01
0.14 0.15 0.15 0.17 0.19 0.23 0.29 0.25 0.29 0.34 0.35 0.32 0.31 0.34 0.39 0.36 0.35 0.33 0.27 0.18 0.15 0.14 0.12 0.11 0.08 0.05 0.03 0.02 0.02 0.03 0.03 0.04 0.04 0.04 0.05 0.05 0.04 0.04 0.05 0.03 0.02 0.02 0.02
0.20 0.17 0.14 0.15 0.16 0.18 0.19 0.17 0.18 0.29 0.34 0.33 0.31 0.30 0.29 0.30 0.31 0.33 0.32 0.23 0.16 0.15 0.12 0.09 0.08 0.06 0.04 0.03 0.03 0.03 0.03 0.03 0.03 0.03 0.03 0.04 0.04 0.04 0.05 0.05 0.04 0.03 0.02
0.20 0.17 0.15 0.14 0.14 0.15 0.16 0.15 0.15 0.24 0.32 0.30 0.28 0.25 0.25 0.24 0.26 0.29 0.29 0.26 0.20 0.17 0.14 0.10 0.08 0.07 0.05 0.03 0.03 0.03 0.03 0.02 0.02 0.02 0.03 0.04 0.04 0.04 0.05 0.05 0.05 0.04 0.03
0.22 0.18 0.15 0.13 0.14 0.15 0.15 0.15 0.17 0.22 0.30 0.27 0.25 0.23 0.24 0.24 0.22 0.24 0.25 0.23 0.22 0.19 0.17 0.15 0.11 0.08 0.06 0.04 0.03 0.03 0.03 0.02 0.03 0.02 0.03 0.03 0.03 0.04 0.04 0.05 0.07 0.07 0.06
0.18 0.17 0.13 0.13 0.15 0.14 0.14 0.16 0.19 0.18 0.22 0.22 0.23 0.24 0.24 0.23 0.19 0.19 0.21 0.19 0.19 0.18 0.17 0.17 0.13 0.10 0.08 0.07 0.05 0.04 0.03 0.03 0.03 0.04 0.04 0.04 0.03 0.04 0.05 0.06 0.07 0.09 0.09
0.14 0.13 0.11 0.10 0.14 0.14 0.12 0.14 0.15 0.15 0.16 0.17 0.19 0.20 0.19 0.20 0.19 0.17 0.17 0.14 0.13 0.14 0.14 0.14 0.14 0.13 0.12 0.10 0.08 0.06 0.05 0.05 0.04 0.04 0.04 0.03 0.03 0.03 0.04 0.05 0.06 0.07 0.08
0.17 0.15 0.14 0.14 0.15 0.14 0.12 0.13 0.12 0.12 0.10 0.12 0.14 0.14 0.14 0.15 0.16 0.18 0.17 0.14 0.10 0.10 0.10 0.10 0.11 0.11 0.12 0.12 0.11 0.09 0.08 0.07 0.06 0.05 0.05 0.04 0.04 0.04 0.04 0.04 0.05 0.06 0.08
0.16 0.17 0.17 0.16 0.14 0.14 0.14 0.15 0.13 0.11 0.09 0.09 0.10 0.10 0.11 0.12 0.12 0.16 0.16 0.17 0.15 0.10 0.09 0.10 0.09 0.09 0.08 0.09 0.09 0.08 0.08 0.08 0.07 0.07 0.07 0.06 0.06 0.05 0.05 0.05 0.05 0.06 0.07
0.14 0.15 0.15 0.16 0.14 0.13 0.14 0.15 0.13 0.11 0.09 0.08 0.08 0.10 0.11 0.11 0.10 0.12 0.16 0.14 0.18 0.14 0.10 0.10 0.10 0.09 0.08 0.07 0.07 0.07 0.07 0.07 0.07 0.07 0.07 0.07 0.07 0.06 0.06 0.06 0.06 0.06 0.06
0.11 0.12 0.14 0.13 0.13 0.12 0.14 0.14 0.12 0.10 0.09 0.07 0.07 0.09 0.09 0.10 0.11 0.10 0.15 0.14 0.17 0.21 0.14 0.12 0.12 0.12 0.11 0.10 0.09 0.08 0.08 0.07 0.07 0.07 0.07 0.07 0.07 0.07 0.07 0.08 0.08 0.08 0.08
0.05 0.06 0.07 0.07 0.08 0.09 0.09 0.09 0.08 0.07 0.07 0.06 0.06 0.07 0.07 0.08 0.10 0.10 0.12 0.12 0.14 0.21 0.20 0.15 0.13 0.12 0.11 0.11 0.11 0.10 0.09 0.09 0.09 0.08 0.08 0.08 0.09 0.08 0.08 0.08 0.08 0.08 0.09
0.01 0.02 0.02 0.03 0.03 0.04 0.05 0.05 0.05 0.05 0.05 0.06 0.06 0.05 0.05 0.06 0.08 0.08 0.09 0.09 0.10 0.14 0.17 0.15 0.13 0.12 0.11 0.12 0.11 0.11 0.10 0.09 0.09 0.09 0.08 0.08 0.09 0.10 0.10 0.10 0.10 0.09 0.09
0.01 0.01 0.00 0.01 0.01 0.01 0.02 0.03 0.03 0.03 0.04 0.04 0.05 0.05 0.05 0.04 0.06 0.08 0.07 0.08 0.09 0.09 0.10 0.10 0.10 0.11 0.11 0.11 0.10 0.10 0.10 0.09 0.09 0.09 0.09 0.09 0.09 0.10 0.11 0.12 0.12 0.11 0.10
0.00 0.01 0.01 0.01 0.01 0.00 0.01 0.02 0.02 0.02 0.03 0.02 0.02 0.03 0.04 0.04 0.04 0.07 0.06 0.08 0.08 0.07 0.08 0.08 0.08 0.08 0.09 0.10 0.09 0.09 0.08 0.07 0.07 0.07 0.09 0.10 0.12 0.12 0.13 0.12 0.10 0.10 0.09
0.00 0.01 0.01 0.01 0.01 0.01 0.01 0.02 0.02 0.03 0.03 0.02 0.02 0.03 0.04 0.04 0.04 0.06 0.04 0.05 0.06 0.06 0.07 0.07 0.07 0.06 0.07 0.08 0.08 0.07 0.06 0.05 0.05 0.05 0.07 0.08 0.10 0.12 0.13 0.11 0.10 0.08 0.08
0.00 0.00 0.01 0.01 0.00 0.01 0.01 0.02 0.02 0.02 0.02 0.02 0.02 0.03 0.04 0.04 0.05 0.05 0.04 0.04 0.05 0.06 0.07 0.07 0.07 0.06 0.06 0.07 0.07 0.06 0.06 0.06 0.06 0.06 0.06 0.08 0.08 0.09 0.10 0.09 0.09 0.09 0.08
0.00 0.00 0.00 0.00 0.01 0.01 0.01 0.02 0.02 0.02 0.02 0.02 0.02 0.03 0.04 0.05 0.05 0.04 0.05 0.04 0.05 0.06 0.06 0.06 0.07 0.07 0.07 0.07 0.08 0.07 0.05 0.05 0.06 0.06 0.06 0.06 0.07 0.07 0.08 0.08 0.07 0.08 0.09
0.00 0.00 0.00 0.00 0.00 0.01 0.01 0.01 0.01 0.02 0.02 0.02 0.03 0.03 0.03 0.05 0.05 0.05 0.06 0.06 0.05 0.05 0.05 0.05 0.06 0.07 0.07 0.07 0.08 0.07 0.06 0.05 0.05 0.05 0.05 0.05 0.07 0.07 0.08 0.08 0.08 0.09 0.10
0.00 0.00 0.00 0.00 0.00 0.00 0.01 0.01 0.02 0.02 0.02 0.03 0.03 0.04 0.04 0.04 0.05 0.06 0.06 0.06 0.06 0.05 0.05 0.05 0.05 0.05 0.05 0.05 0.07 0.07 0.07 0.07 0.07 0.06 0.06 0.06 0.06 0.07 0.08 0.09 0.09 0.08 0.08
0.00 0.00 0.00 0.00 0.00 0.00 0.00 0.01 0.02 0.02 0.02 0.03 0.03 0.04 0.05 0.05 0.05 0.06 0.07 0.07 0.07 0.06 0.05 0.05 0.04 0.04 0.03 0.03 0.04 0.05 0.06 0.07 0.07 0.07 0.07 0.07 0.08 0.09 0.09 0.08 0.08 0.07 0.06
0.00 0.00 0.00 0.00 0.00 0.00 0.00 0.01 0.01 0.02 0.02 0.03 0.03 0.04 0.04 0.05 0.06 0.06 0.07 0.08 0.08 0.07 0.06 0.05 0.05 0.04 0.03 0.03 0.04 0.04 0.05 0.06 0.06 0.06 0.06 0.06 0.07 0.08 0.07 0.07 0.07 0.06 0.06
0.00 0.00 0.00 0.00 0.00 0.00 0.00 0.01 0.01 0.01 0.02 0.02 0.03 0.04 0.04 0.05 0.06 0.06 0.07 0.08 0.08 0.09 0.08 0.08 0.06 0.05 0.04 0.04 0.04 0.04 0.04 0.05 0.06 0.07 0.06 0.06 0.06 0.06 0.06 0.06 0.06 0.06 0.07
MSLP
1003.98 1003.64 1003.40 1003.27 1003.26 1003.37 1003.61 1003.94 1004.35 1004.80 1005.23 1005.62 1005.94 1006.17 1006.33 1006.44 1006.54 1006.66 1006.85 1007.15 1007.58 1008.16 1008.88 1009.72 1010.65 1011.62 1012.60 1013.55 1014.43 1015.23 1015.93 1016.53 1017.04 1017.48 1017.85 1018.17 1018.46 1018.71 1018.94 1019.13 1019.30 1019.44 1019.55
1002.78 1002.38 1002.12 1002.01 1002.04 1002.22 1002.53 1002.95 1003.44 1003.94 1004.43 1004.85 1005.19 1005.44 1005.59 1005.68 1005.76 1005.85 1006.03 1006.32 1006.75 1007.33 1008.06 1008.92 1009.87 1010.87 1011.88 1012.85 1013.77 1014.60 1015.33 1015.98 1016.54 1017.04 1017.48 1017.89 1018.26 1018.60 1018.92 1019.20 1019.45 1019.66 1019.83
1001.81 1001.30 1000.98 1000.84 1000.89 1001.11 1001.47 1001.95 1002.49 1003.04 1003.56 1004.00 1004.35 1004.59 1004.74 1004.82 1004.89 1004.99 1005.17 1005.47 1005.91 1006.52 1007.26 1008.14 1009.10 1010.11 1011.12 1012.09 1013.02 1013.86 1014.62 1015.30 1015.92 1016.48 1017.00 1017.50 1017.97 1018.42 1018.84 1019.23 1019.58 1019.88 1020.12
1001.17 1000.51 1000.07 999.86 999.87 1000.08 1000.46 1000.96 1001.52 1002.08 1002.61 1003.05 1003.39 1003.62 1003.77 1003.86 1003.95 1004.08 1004.30 1004.64 1005.13 1005.77 1006.54 1007.42 1008.38 1009.37 1010.36 1011.32 1012.23 1013.07 1013.84 1014.55 1015.20 1015.82 1016.42 1017.00 1017.56 1018.12 1018.64 1019.14 1019.60 1020.00 1020.33
1000.95 1000.09 999.49 999.15 999.07 999.22 999.55 1000.02 1000.55 1001.09 1001.58 1002.00 1002.32 1002.55 1002.71 1002.84 1002.98 1003.18 1003.47 1003.89 1004.44 1005.12 1005.93 1006.82 1007.76 1008.72 1009.68 1010.60 1011.47 1012.28 1013.05 1013.76 1014.45 1015.11 1015.76 1016.40 1017.04 1017.68 1018.30 1018.89 1019.44 1019.94 1020.37
1001.18 1000.11 999.32 998.82 998.59 998.62 998.85 999.21 999.66 1000.12 1000.56 1000.92 1001.21 1001.44 1001.63 1001.81 1002.03 1002.32 1002.72 1003.24 1003.87 1004.62 1005.45 1006.35 1007.27 1008.19 1009.09 1009.96 1010.78 1011.56 1012.31 1013.02 1013.71 1014.39 1015.07 1015.75 1016.43 1017.11 1017.79 1018.45 1019.08 1019.67 1020.19
1001.85 1000.60 999.61 998.93 998.53 998.39 998.45 998.67 998.98 999.32 999.64 999.93 1000.17 1000.39 1000.61 1000.86 1001.17 1001.58 1002.10 1002.73 1003.46 1004.27 1005.13 1006.02 1006.91 1007.78 1008.63 1009.43 1010.20 1010.94 1011.66 1012.36 1013.04 1013.72 1014.40 1015.09 1015.78 1016.47 1017.17 1017.86 1018.54 1019.19 1019.80
1002.95 1001.54 1000.40 999.53 998.95 998.61 998.48 998.51 998.63 998.80 998.98 999.16 999.34 999.54 999.78 1000.09 1000.50 1001.02 1001.65 1002.38 1003.19 1004.05 1004.94 1005.81 1006.66 1007.48 1008.26 1009.01 1009.73 1010.44 1011.13 1011.81 1012.48 1013.15 1013.82 1014.48 1015.15 1015.82 1016.50 1017.20 1017.90 1018.59 1019.25
1004.39 1002.91 1001.66 1000.65 999.89 999.36 999.03 998.84 998.75 998.72 998.73 998.78 998.87 999.03 999.27 999.62 1000.09 1000.70 1001.41 1002.22 1003.08 1003.96 1004.84 1005.68 1006.48 1007.24 1007.96 1008.65 1009.33 1010.01 1010.69 1011.36 1012.04 1012.70 1013.34 1013.98 1014.61 1015.24 1015.88 1016.55 1017.24 1017.94 1018.64
1006.09 1004.62 1003.33 1002.23 1001.34 1000.65 1000.12 999.71 999.41 999.18 999.01 998.91 998.89 998.97 999.18 999.52 1000.02 1000.66 1001.40 1002.23 1003.08 1003.94 1004.78 1005.56 1006.29 1006.98 1007.64 1008.28 1008.94 1009.61 1010.29 1010.99 1011.67 1012.34 1012.98 1013.60 1014.19 1014.78 1015.37 1016.00 1016.66 1017.35 1018.07
1007.95 1006.57 1005.31 1004.19 1003.23 1002.41 1001.73 1001.14 1000.65 1000.23 999.89 999.63 999.48 999.46 999.59 999.88 1000.34 1000.93 1001.64 1002.41 1003.20 1003.98 1004.72 1005.40 1006.04 1006.64 1007.24 1007.85 1008.49 1009.17 1009.89 1010.62 1011.34 1012.04 1012.71 1013.32 1013.90 1014.46 1015.02 1015.60 1016.22 1016.90 1017.61
1009.85 1008.62 1007.45 1006.37 1005.40 1004.52 1003.73 1003.02 1002.38 1001.80 1001.30 1000.90 1000.61 1000.46 1000.48 1000.67 1001.02 1001.51 1002.09 1002.74 1003.40 1004.03 1004.63 1005.18 1005.70 1006.21 1006.74 1007.31 1007.95 1008.65 1009.41 1010.20 1010.99 1011.75 1012.47 1013.12 1013.71 1014.26 1014.80 1015.36 1015.95 1016.60 1017.29
1011.68 1010.63 1009.60 1008.60 1007.67 1006.78 1005.95 1005.17 1004.44 1003.75 1003.13 1002.60 1002.19 1001.91 1001.79 1001.83 1002.03 1002.34 1002.75 1003.20 1003.67 1004.12 1004.53 1004.92 1005.29 1005.69 1006.14 1006.68 1007.31 1008.03 1008.84 1009.71 1010.58 1011.42 1012.21 1012.92 1013.56 1014.14 1014.69 1015.24 1015.81 1016.44 1017.11
1013.34 1012.47 1011.59 1010.71 1009.85 1009.01 1008.20 1007.40 1006.63 1005.89 1005.20 1004.58 1004.06 1003.66 1003.39 1003.26 1003.26 1003.37 1003.56 1003.78 1004.02 1004.24 1004.45 1004.65 1004.87 1005.15 1005.51 1006.00 1006.61 1007.36 1008.21 1009.14 1010.09 1011.03 1011.90 1012.70 1013.41 1014.04 1014.63 1015.19 1015.76 1016.38 1017.03
1014.76 1014.05 1013.31 1012.56 1011.79 1011.03 1010.26 1009.50 1008.75 1008.01 1007.30 1006.63 1006.03 1005.52 1005.11 1004.81 1004.61 1004.50 1004.45 1004.44 1004.44 1004.44 1004.44 1004.45 1004.52 1004.67 1004.94 1005.37 1005.95 1006.70 1007.58 1008.55 1009.57 1010.58 1011.54 1012.43 1013.22 1013.92 1014.56 1015.16 1015.75 1016.36 1017.00
1015.89 1015.31 1014.69 1014.04 1013.37 1012.69 1012.01 1011.32 1010.63 1009.92 1009.22 1008.54 1007.90 1007.30 1006.78 1006.33 1005.95 1005.64 1005.38 1005.14 1004.93 1004.72 1004.54 1004.39 1004.32 1004.36 1004.54 1004.89 1005.43 1006.15 1007.03 1008.02 1009.07 1010.13 1011.16 1012.12 1012.98 1013.76 1014.46 1015.10 1015.72 1016.35 1016.98
1016.75 1016.25 1015.71 1015.14 1014.55 1013.96 1013.37 1012.76 1012.14 1011.50 1010.84 1010.18 1009.52 1008.87 1008.26 1007.69 1007.17 1006.69 1006.26 1005.85 1005.46 1005.10 1004.77 1004.51 1004.33 1004.27 1004.37 1004.66 1005.14 1005.81 1006.65 1007.62 1008.67 1009.75 1010.81 1011.81 1012.74 1013.58 1014.33 1015.03 1015.68 1016.32 1016.96
1017.39 1016.92 1016.42 1015.90 1015.38 1014.86 1014.34 1013.81 1013.26 1012.69 1012.08 1011.44 1010.78 1010.11 1009.44 1008.79 1008.17 1007.58 1007.02 1006.50 1006.00 1005.55 1005.14 1004.80 1004.56 1004.44 1004.48 1004.70 1005.11 1005.72 1006.50 1007.42 1008.43 1009.49 1010.55 1011.57 1012.52 1013.40 1014.20 1014.94 1015.62 1016.28 1016.92
1017.87 1017.42 1016.93 1016.44 1015.95 1015.48 1015.01 1014.54 1014.05 1013.52 1012.96 1012.34 1011.68 1010.99 1010.28 1009.58 1008.89 1008.24 1007.62 1007.03 1006.49 1006.00 1005.57 1005.21 1004.95 1004.80 1004.81 1004.99 1005.34 1005.88 1006.58 1007.43 1008.37 1009.38 1010.41 1011.42 1012.38 1013.28 1014.11 1014.87 1015.58 1016.24 1016.88
1018.31 1017.85 1017.36 1016.88 1016.40 1015.95 1015.51 1015.07 1014.60 1014.10 1013.54 1012.92 1012.25 1011.54 1010.80 1010.06 1009.34 1008.65 1008.00 1007.41 1006.87 1006.39 1005.98 1005.64 1005.40 1005.27 1005.27 1005.42 1005.73 1006.20 1006.83 1007.60 1008.48 1009.42 1010.40 1011.38 1012.32 1013.22 1014.06 1014.83 1015.55 1016.22 1016.85
1018.78 1018.31 1017.82 1017.33 1016.86 1016.41 1015.97 1015.52 1015.05 1014.53 1013.95 1013.31 1012.60 1011.85 1011.08 1010.30 1009.55 1008.84 1008.18 1007.60 1007.08 1006.64 1006.27 1005.99 1005.79 1005.69 1005.71 1005.86 1006.15 1006.58 1007.16 1007.86 1008.67 1009.55 1010.47 1011.41 1012.33 1013.22 1014.05 1014.82 1015.54 1016.20 1016.82
1019.31 1018.84 1018.36 1017.87 1017.39 1016.92 1016.46 1015.99 1015.47 1014.91 1014.28 1013.58 1012.82 1012.01 1011.18 1010.36 1009.57 1008.84 1008.18 1007.60 1007.11 1006.71 1006.39 1006.16 1006.02 1005.97 1006.02 1006.19 1006.48 1006.89 1007.44 1008.09 1008.85 1009.68 1010.56 1011.46 1012.36 1013.22 1014.04 1014.80 1015.51 1016.16 1016.76
1019.90 1019.46 1018.99 1018.50 1018.02 1017.53 1017.03 1016.51 1015.94 1015.31 1014.61 1013.83 1012.99 1012.11 1011.22 1010.33 1009.49 1008.72 1008.04 1007.45 1006.97 1006.59 1006.30 1006.12 1006.02 1006.01 1006.11 1006.31 1006.61 1007.03 1007.57 1008.21 1008.94 1009.74 1010.60 1011.47 1012.34 1013.18 1013.99 1014.73 1015.42 1016.05 1016.64
1020.52 1020.11 1019.66 1019.19 1018.70 1018.19 1017.66 1017.08 1016.45 1015.75 1014.96 1014.11 1013.19 1012.23 1011.26 1010.31 1009.40 1008.57 1007.84 1007.22 1006.71 1006.32 1006.04 1005.87 1005.79 1005.82 1005.95 1006.18 1006.51 1006.96 1007.51 1008.15 1008.88 1009.68 1010.52 1011.37 1012.23 1013.05 1013.84 1014.56 1015.23 1015.84 1016.41
1021.11 1020.73 1020.31 1019.85 1019.36 1018.84 1018.28 1017.66 1016.97 1016.20 1015.35 1014.42 1013.43 1012.40 1011.36 1010.34 1009.37 1008.47 1007.68 1007.00 1006.43 1006.00 1005.68 1005.49 1005.41 1005.44 1005.59 1005.85 1006.21 1006.69 1007.26 1007.93 1008.67 1009.48 1010.31 1011.16 1012.00 1012.80 1013.57 1014.27 1014.92 1015.51 1016.05
1021.60 1021.26 1020.86 1020.41 1019.93 1019.40 1018.81 1018.16 1017.43 1016.62 1015.72 1014.76 1013.72 1012.65 1011.56 1010.49 1009.46 1008.50 1007.63 1006.87 1006.23 1005.72 1005.35 1005.11 1005.00 1005.02 1005.16 1005.43 1005.82 1006.32 1006.92 1007.61 1008.37 1009.18 1010.01 1010.85 1011.67 1012.46 1013.19 1013.87 1014.49 1015.06 1015.58
Thickness
5560 5566 5571 5577 5585 5591 5597 5604 5610 5616 5622 5628 5634 5640 5646 5652 5659 5663 5666 5669 5672 5672 5672 5672 5671 5671 5669 5668 5667 5665 5663 5661 5659 5656 5654 5656 5658 5659 5659 5659 5658 5657 5656
5557 5563 5568 5574 5579 5585 5592 5599 5604 5611 5616 5623 5629 5635 5640 5646 5652 5655 5658 5662 5666 5667 5667 5667 5667 5666 5664 5662 5661 5660 5657 5655 5654 5650 5645 5643 5646 5650 5652 5652 5652 5651 5649
5553 5557 5563 5569 5574 5580 5588 5596 5600 5605 5610 5617 5622 5626 5631 5638 5643 5647 5652 5656 5659 5661 5661 5661 5661 5660 5660 5658 5657 5656 5652 5649 5647 5647 5642 5637 5637 5639 5642 5644 5644 5643 5641
5550 5554 5559 5565 5570 5575 5582 5588 5593 5599 5604 5610 5615 5621 5627 5632 5637 5643 5646 5648 5651 5652 5653 5654 5655 5654 5653 5653 5651 5650 5648 5644 5641 5639 5639 5637 5635 5631 5631 5634 5635 5634 5633
5548 5552 5557 5563 5567 5571 5576 5582 5587 5594 5599 5604 5610 5615 5619 5625 5629 5634 5637 5640 5643 5645 5646 5646 5646 5646 5646 5646 5645 5642 5640 5638 5636 5634 5632 5629 5627 5627 5624 5624 5625 5624 5625
5546 5550 5555 5560 5563 5567 5573 5578 5583 5588 5593 5599 5604 5608 5613 5618 5621 5626 5629 5632 5634 5635 5637 5638 5638 5638 5638 5638 5637 5635 5633 5631 5630 5628 5626 5624 5621 5619 5617 5615 5616 5615 5616
5542 5546 5550 5555 5559 5564 5569 5575 5580 5584 5588 5594 5598 5602 5607 5611 5615 5619 5622 5625 5626 5626 5628 5629 5630 5630 5630 5630 5629 5627 5625 5623 5622 5620 5618 5618 5617 5615 5612 5608 5606 5604 5605
5536 5541 5545 5550 5555 5559 5564 5570 5574 5579 5584 5588 5591 5595 5600 5605 5607 5611 5614 5616 5617 5619 5619 5620 5621 5621 5622 5622 5620 5618 5617 5615 5614 5612 5610 5609 5608 5607 5605 5602 5597 5594 5593
5531 5535 5540 5544 5549 5554 5559 5564 5569 5574 5578 5583 5586 5590 5594 5598 5600 5603 5606 5608 5609 5609 5610 5610 5611 5612 5612 5613 5612 5610 5608 5607 5605 5603 5602 5600 5600 5598 5597 5595 5592 5587 5584
5527 5531 5534 5538 5543 5548 5553 5559 5564 5568 5572 5576 5580 5583 5586 5590 5593 5596 5598 5599 5600 5600 5601 5601 5602 5602 5602 5602 5601 5600 5599 5598 5597 5595 5593 5591 5590 5588 5588 5586 5583 5581 5578
5522 5526 5529 5533 5538 5542 5547 5552 5557 5561 5565 5569 5572 5575 5578 5582 5586 5588 5589 5589 5590 5590 5592 5592 5592 5592 5591 5590 5589 5588 5588 5587 5586 5585 5584 5582 5580 5578 5577 5575 5573 5571 5568
5517 5520 5523 5527 5531 5534 5539 5544 5548 5552 5557 5561 5565 5567 5570 5573 5575 5577 5578 5579 5580 5582 5583 5583 5582 5581 5580 5580 5579 5579 5578 5577 5576 5575 5572 5571 5569 5567 5566 5563 5562 5561 5559
5515 5516 5518 5521 5525 5528 5532 5536 5540 5544 5548 5553 5557 5560 5561 5564 5566 5568 5569 5570 5571 5572 5572 5572 5571 5571 5571 5570 5570 5569 5568 5567 5566 5565 5563 5561 5559 5557 5554 5552 5551 5549 5548
5510 5512 5513 5515 5517 5520 5524 5528 5532 5536 5540 5544 5548 5550 5552 5555 5557 5559 5560 5561 5561 5562 5562 5562 5561 5560 5560 5560 5559 5558 5558 5557 5556 5554 5552 5550 5548 5546 5544 5542 5540 5538 5536
5506 5507 5508 5509 5511 5514 5517 5520 5524 5528 5532 5537 5540 5542 5544 5546 5548 5550 5550 5550 5550 5552 5552 5551 5551 5550 5550 5549 5548 5548 5547 5546 5544 5542 5540 5539 5537 5536 5534 5533 5531 5529 5526
5502 5503 5505 5505 5506 5508 5512 5515 5519 5522 5525 5528 5530 5532 5534 5536 5537 5538 5538 5539 5539 5540 5539 5539 5539 5538 5538 5537 5536 5536 5535 5533 5531 5529 5528 5527 5525 5524 5524 5523 5522 5520 5517
5498 5499 5500 5500 5502 5503 5506 5509 5511 5515 5517 5519 5520 5522 5523 5525 5526 5526 5526 5526 5526 5526 5526 5526 5526 5526 5525 5524 5524 5523 5522 5521 5518 5517 5515 5514 5513 5512 5511 5511 5510 5508 5507
5494 5495 5495 5496 5497 5499 5500 5501 5504 5506 5508 5509 5511 5512 5513 5513 5513 5513 5513 5512 5512 5512 5512 5513 5513 5513 5512 5511 5511 5510 5509 5507 5506 5504 5503 5502 5500 5500 5499 5498 5496 5494 5494
5492 5491 5491 5491 5492 5492 5493 5494 5496 5497 5498 5498 5499 5500 5501 5501 5500 5499 5499 5498 5498 5498 5498 5499 5499 5498 5497 5497 5496 5495 5495 5494 5492 5491 5491 5489 5489 5489 5487 5485 5483 5481 5482
5489 5487 5486 5486 5485 5486 5486 5487 5486 5487 5487 5487 5487 5487 5487 5486 5485 5484 5484 5484 5483 5484 5485 5485 5484 5483 5482 5482 5482 5481 5481 5479 5479 5478 5477 5477 5477 5476 5475 5473 5471 5469 5469
5485 5483 5481 5480 5478 5478 5478 5478 5477 5476 5475 5475 5474 5473 5472 5471 5470 5470 5469 5468 5468 5469 5468 5468 5468 5467 5467 5467 5467 5467 5466 5465 5464 5464 5464 5464 5464 5463 5462 5460 5459 5459 5457
5480 5477 5474 5472 5471 5470 5468 5467 5465 5465 5464 5463 5461 5460 5459 5458 5457 5455 5454 5453 5452 5452 5451 5451 5452 5451 5451 5451 5451 5451 5451 5451 5450 5450 5450 5450 5450 5449 5449 5448 5448 5448 5446
5475 5472 5469 5466 5463 5461 5459 5456 5455 5454 5452 5450 5448 5446 5445 5443 5441 5440 5439 5438 5437 5435 5435 5435 5436 5436 5436 5435 5435 5435 5436 5436 5436 5436 5436 5436 5435 5435 5435 5436 5436 5435 5433
5468 5465 5462 5459 5455 5453 5450 5448 5445 5442 5440 5437 5435 5434 5432 5430 5428 5425 5423 5422 5421 5420 5420 5420 5421 5421 5420 5419 5419 5419 5420 5421 5421 5421 5422 5422 5422 5421 5422 5422 5422 5422 5422
5462 5458 5455 5452 5448 5445 5442 5439 5435 5432 5428 5425 5423 5422 5420 5417 5415 5412 5409 5407 5406 5405 5406 5406 5406 5406 5406 5405 5405 5405 5406 5406 5406 5407 5407 5407 5407 5407 5407 5408 5409 5410 5410
5454 5450 5447 5443 5439 5435 5432 5428 5425 5421 5417 5415 5412 5410 5408 5405 5402 5400 5398 5397 5395 5395 5394 5393 5393 5392 5391 5392 5392 5393 5392 5392 5392 5393 5393 5393 5394 5395 5395 5396 5397 5398 5399